Wetterdaten: Mittwoch, 22.09.2010
Datum Zeit Temp. A. Feuchte A. Luftdruck Regen Wind Richtung Richtung Sonnenschein UV Solar Windben
22.09.2010 00:00 11,0 C 92 % 1022,0 hPa 0,0 mm 0,0 km/h (0 Bft) N 0 0 min 0 UV-I 0 W/m 0,0 km/h (0 Bft)
22.09.2010 00:10 10,8 C 92 % 1021,8 hPa 0,0 mm 0,0 km/h (0 Bft) N 0 0 min 0 UV-I 0 W/m 0,0 km/h (0 Bft)
22.09.2010 00:20 10,7 C 92 % 1021,9 hPa 0,0 mm 0,0 km/h (0 Bft) N 0 0 min 0 UV-I 0 W/m 0,0 km/h (0 Bft)
22.09.2010 00:30 10,6 C 92 % 1022,0 hPa 0,0 mm 0,0 km/h (0 Bft) N 0 0 min 0 UV-I 0 W/m 0,0 km/h (0 Bft)
22.09.2010 00:40 10,4 C 92 % 1021,9 hPa 0,0 mm 0,0 km/h (0 Bft) N 0 0 min 0 UV-I 0 W/m 0,0 km/h (0 Bft)
22.09.2010 00:50 10,3 C 92 % 1022,0 hPa 0,0 mm 0,0 km/h (0 Bft) N 0 0 min 0 UV-I 0 W/m 0,0 km/h (0 Bft)
22.09.2010 01:00 10,3 C 92 % 1021,9 hPa 0,0 mm 0,0 km/h (0 Bft) N 0 0 min 0 UV-I 0 W/m 0,0 km/h (0 Bft)
22.09.2010 01:10 10,2 C 92 % 1021,8 hPa 0,0 mm 0,0 km/h (0 Bft) N 0 0 min 0 UV-I 0 W/m 0,0 km/h (0 Bft)
22.09.2010 01:20 10,1 C 92 % 1021,8 hPa 0,0 mm 0,0 km/h (0 Bft) N 0 0 min 0 UV-I 0 W/m 0,0 km/h (0 Bft)
22.09.2010 01:30 9,9 C 92 % 1021,9 hPa 0,0 mm 0,0 km/h (0 Bft) N 0 0 min 0 UV-I 0 W/m 0,0 km/h (0 Bft)
22.09.2010 01:40 9,8 C 92 % 1021,9 hPa 0,0 mm 0,0 km/h (0 Bft) N 0 0 min 0 UV-I 0 W/m 0,0 km/h (0 Bft)
22.09.2010 01:50 9,8 C 93 % 1021,9 hPa 0,0 mm 0,0 km/h (0 Bft) N 0 0 min 0 UV-I 0 W/m 0,0 km/h (0 Bft)
22.09.2010 02:00 9,9 C 93 % 1021,9 hPa 0,0 mm 0,0 km/h (0 Bft) N 0 0 min 0 UV-I 0 W/m 0,0 km/h (0 Bft)
22.09.2010 02:10 10,1 C 93 % 1022,0 hPa 0,0 mm 0,0 km/h (0 Bft) N 0 0 min 0 UV-I 0 W/m 0,0 km/h (0 Bft)
22.09.2010 02:20 10,3 C 93 % 1021,9 hPa 0,0 mm 0,0 km/h (0 Bft) N 0 0 min 0 UV-I 0 W/m 0,0 km/h (0 Bft)
22.09.2010 02:30 10,4 C 93 % 1021,8 hPa 0,0 mm 0,0 km/h (0 Bft) N 0 0 min 0 UV-I 0 W/m 0,0 km/h (0 Bft)
22.09.2010 02:40 10,6 C 93 % 1021,8 hPa 0,0 mm 0,0 km/h (0 Bft) N 0 0 min 0 UV-I 0 W/m 0,0 km/h (0 Bft)
22.09.2010 02:50 10,8 C 93 % 1021,8 hPa 0,0 mm 0,0 km/h (0 Bft) N 0 0 min 0 UV-I 0 W/m 0,0 km/h (0 Bft)
22.09.2010 03:00 10,8 C 93 % 1021,7 hPa 0,0 mm 0,0 km/h (0 Bft) N 0 0 min 0 UV-I 0 W/m 0,0 km/h (0 Bft)
22.09.2010 03:10 10,8 C 93 % 1021,6 hPa 0,0 mm 0,0 km/h (0 Bft) N 0 0 min 0 UV-I 0 W/m 0,0 km/h (0 Bft)
22.09.2010 03:20 10,8 C 93 % 1021,5 hPa 0,0 mm 0,0 km/h (0 Bft) N 0 0 min 0 UV-I 0 W/m 0,0 km/h (0 Bft)
22.09.2010 03:30 10,8 C 93 % 1021,6 hPa 0,0 mm 0,0 km/h (0 Bft) N 0 0 min 0 UV-I 0 W/m 0,0 km/h (0 Bft)
22.09.2010 03:40 10,6 C 93 % 1021,5 hPa 0,0 mm 0,0 km/h (0 Bft) N 0 0 min 0 UV-I 0 W/m 0,0 km/h (0 Bft)
22.09.2010 03:50 10,4 C 93 % 1021,5 hPa 0,0 mm 0,0 km/h (0 Bft) N 0 0 min 0 UV-I 0 W/m 0,0 km/h (0 Bft)
22.09.2010 04:00 10,3 C 93 % 1021,5 hPa 0,0 mm 0,0 km/h (0 Bft) N 0 0 min 0 UV-I 0 W/m 0,0 km/h (0 Bft)
22.09.2010 04:10 10,3 C 93 % 1021,5 hPa 0,0 mm 0,0 km/h (0 Bft) N 0 0 min 0 UV-I 0 W/m 0,0 km/h (0 Bft)
22.09.2010 04:20 10,2 C 93 % 1021,4 hPa 0,0 mm 0,0 km/h (0 Bft) N 0 0 min 0 UV-I 0 W/m 0,0 km/h (0 Bft)
22.09.2010 04:30 10,2 C 93 % 1021,4 hPa 0,0 mm 0,0 km/h (0 Bft) N 0 0 min 0 UV-I 0 W/m 0,0 km/h (0 Bft)
22.09.2010 04:40 10,1 C 93 % 1021,2 hPa 0,0 mm 0,0 km/h (0 Bft) N 0 0 min 0 UV-I 0 W/m 0,0 km/h (0 Bft)
22.09.2010 04:50 10,0 C 93 % 1021,2 hPa 0,0 mm 0,0 km/h (0 Bft) N 0 0 min 0 UV-I 0 W/m 0,0 km/h (0 Bft)
22.09.2010 05:00 9,9 C 93 % 1021,2 hPa 0,0 mm 0,0 km/h (0 Bft) N 0 0 min 0 UV-I 0 W/m 0,0 km/h (0 Bft)
22.09.2010 05:10 9,9 C 93 % 1021,1 hPa 0,0 mm 0,0 km/h (0 Bft) N 0 0 min 0 UV-I 0 W/m 0,0 km/h (0 Bft)
22.09.2010 05:20 9,8 C 93 % 1021,0 hPa 0,0 mm 0,0 km/h (0 Bft) N 0 0 min 0 UV-I 0 W/m 0,0 km/h (0 Bft)
22.09.2010 05:30 9,8 C 93 % 1021,0 hPa 0,0 mm 0,0 km/h (0 Bft) N 0 0 min 0 UV-I 0 W/m 0,0 km/h (0 Bft)
22.09.2010 05:40 9,8 C 93 % 1021,0 hPa 0,0 mm 0,0 km/h (0 Bft) N 0 0 min 0 UV-I 0 W/m 0,0 km/h (0 Bft)
22.09.2010 05:50 9,8 C 93 % 1020,9 hPa 0,0 mm 0,0 km/h (0 Bft) N 0 0 min 0 UV-I 0 W/m 0,0 km/h (0 Bft)
22.09.2010 06:00 9,8 C 93 % 1020,9 hPa 0,0 mm 0,0 km/h (0 Bft) N 0 0 min 0 UV-I 0 W/m 0,0 km/h (0 Bft)
22.09.2010 06:10 9,8 C 93 % 1021,0 hPa 0,0 mm 0,0 km/h (0 Bft) N 0 0 min 0 UV-I 0 W/m 0,0 km/h (0 Bft)
22.09.2010 06:20 9,9 C 93 % 1020,9 hPa 0,0 mm 0,0 km/h (0 Bft) N 0 0 min 0 UV-I 0 W/m 0,0 km/h (0 Bft)
22.09.2010 06:30 9,9 C 93 % 1020,9 hPa 0,0 mm 0,0 km/h (0 Bft) N 0 0 min 0 UV-I 0 W/m 0,0 km/h (0 Bft)
22.09.2010 06:40 9,9 C 93 % 1020,9 hPa 0,0 mm 0,0 km/h (0 Bft) N 0 0 min 0 UV-I 0 W/m 0,0 km/h (0 Bft)
22.09.2010 06:50 9,9 C 93 % 1020,9 hPa 0,0 mm 0,0 km/h (0 Bft) N 0 0 min 0 UV-I 0 W/m 0,0 km/h (0 Bft)
22.09.2010 07:00 9,9 C 93 % 1021,0 hPa 0,0 mm 0,0 km/h (0 Bft) N 0 0 min 0 UV-I 0 W/m 0,0 km/h (0 Bft)
22.09.2010 07:10 9,8 C 93 % 1021,1 hPa 0,0 mm 0,0 km/h (0 Bft) N 0 0 min 0 UV-I 0 W/m 0,0 km/h (0 Bft)
22.09.2010 07:20 9,8 C 93 % 1021,0 hPa 0,0 mm 0,0 km/h (0 Bft) N 0 0 min 0 UV-I 7 W/m 0,0 km/h (0 Bft)
22.09.2010 07:30 9,7 C 93 % 1021,0 hPa 0,0 mm 0,0 km/h (0 Bft) N 0 0 min 0 UV-I 12 W/m 0,0 km/h (0 Bft)
22.09.2010 07:40 9,7 C 93 % 1021,2 hPa 0,0 mm 0,0 km/h (0 Bft) N 0 0 min 0 UV-I 18 W/m 0,0 km/h (0 Bft)
22.09.2010 07:50 9,8 C 93 % 1021,2 hPa 0,0 mm 0,0 km/h (0 Bft) N 0 0 min 0 UV-I 23 W/m 0,0 km/h (0 Bft)
22.09.2010 08:00 9,9 C 93 % 1021,1 hPa 0,0 mm 0,0 km/h (0 Bft) N-NO 22 0 min 0 UV-I 26 W/m 3,2 km/h (1 Bft)
22.09.2010 08:10 10,2 C 94 % 1021,0 hPa 0,0 mm 1,6 km/h (1 Bft) NO 45 0 min 0 UV-I 30 W/m 4,8 km/h (1 Bft)
22.09.2010 08:20 10,6 C 94 % 1021,0 hPa 0,0 mm 3,2 km/h (1 Bft) O 90 0 min 0 UV-I 63 W/m 8,0 km/h (2 Bft)
22.09.2010 08:30 11,0 C 94 % 1021,0 hPa 0,0 mm 1,6 km/h (1 Bft) O 90 10 min 1 UV-I 141 W/m 8,0 km/h (2 Bft)
22.09.2010 08:40 11,3 C 94 % 1021,0 hPa 0,0 mm 0,0 km/h (0 Bft) O 90 10 min 1 UV-I 162 W/m 4,8 km/h (1 Bft)
22.09.2010 08:50 11,7 C 94 % 1020,9 hPa 0,0 mm 0,0 km/h (0 Bft) O 90 10 min 1 UV-I 185 W/m 4,8 km/h (1 Bft)
22.09.2010 09:00 12,8 C 94 % 1020,9 hPa 0,0 mm 0,0 km/h (0 Bft) O 90 10 min 1 UV-I 207 W/m 3,2 km/h (1 Bft)
22.09.2010 09:10 13,7 C 91 % 1021,0 hPa 0,0 mm 0,0 km/h (0 Bft) O 90 10 min 1 UV-I 234 W/m 4,8 km/h (1 Bft)
22.09.2010 09:20 14,3 C 88 % 1021,0 hPa 0,0 mm 0,0 km/h (0 Bft) O 90 10 min 1 UV-I 257 W/m 6,4 km/h (2 Bft)
22.09.2010 09:30 14,9 C 87 % 1021,0 hPa 0,0 mm 1,6 km/h (1 Bft) O 90 10 min 1 UV-I 283 W/m 4,8 km/h (1 Bft)
22.09.2010 09:40 15,3 C 84 % 1021,0 hPa 0,0 mm 1,6 km/h (1 Bft) O 90 10 min 1 UV-I 320 W/m 9,7 km/h (2 Bft)
22.09.2010 09:50 15,9 C 80 % 1021,0 hPa 0,0 mm 3,2 km/h (1 Bft) O-SO 112 10 min 2 UV-I 348 W/m 9,7 km/h (2 Bft)
22.09.2010 10:00 16,3 C 80 % 1021,0 hPa 0,0 mm 3,2 km/h (1 Bft) O-SO 112 10 min 2 UV-I 373 W/m 11,3 km/h (2 Bft)
22.09.2010 10:10 16,7 C 79 % 1021,1 hPa 0,0 mm 3,2 km/h (1 Bft) O-SO 112 10 min 2 UV-I 399 W/m 14,5 km/h (3 Bft)
22.09.2010 10:20 17,2 C 76 % 1021,0 hPa 0,0 mm 4,6 km/h (1 Bft) O-SO 113 10 min 2 UV-I 408 W/m 16,1 km/h (3 Bft)
22.09.2010 10:30 17,4 C 76 % 1020,9 hPa 0,0 mm 4,1 km/h (1 Bft) O 100 10 min 2 UV-I 430 W/m 12,9 km/h (3 Bft)
22.09.2010 10:40 18,1 C 74 % 1020,8 hPa 0,0 mm 2,4 km/h (1 Bft) O-SO 103 10 min 2 UV-I 455 W/m 8,0 km/h (2 Bft)
22.09.2010 10:50 18,3 C 74 % 1020,8 hPa 0,0 mm 3,0 km/h (1 Bft) O-SO 103 10 min 3 UV-I 479 W/m 9,7 km/h (2 Bft)
22.09.2010 11:00 18,8 C 72 % 1020,8 hPa 0,0 mm 4,0 km/h (1 Bft) O 101 10 min 3 UV-I 499 W/m 14,5 km/h (3 Bft)
22.09.2010 11:10 19,2 C 71 % 1020,8 hPa 0,0 mm 3,7 km/h (1 Bft) O-SO 117 10 min 3 UV-I 521 W/m 9,7 km/h (2 Bft)
22.09.2010 11:20 19,3 C 69 % 1020,8 hPa 0,0 mm 4,4 km/h (1 Bft) O-SO 105 10 min 3 UV-I 540 W/m 14,5 km/h (3 Bft)
22.09.2010 11:30 19,8 C 67 % 1020,6 hPa 0,0 mm 2,8 km/h (1 Bft) O-SO 122 10 min 3 UV-I 562 W/m 11,3 km/h (2 Bft)
22.09.2010 11:40 20,1 C 65 % 1020,5 hPa 0,0 mm 3,2 km/h (1 Bft) O-SO 118 10 min 4 UV-I 580 W/m 14,5 km/h (3 Bft)
22.09.2010 11:50 20,4 C 66 % 1020,4 hPa 0,0 mm 2,3 km/h (1 Bft) SO 133 10 min 4 UV-I 595 W/m 9,7 km/h (2 Bft)
22.09.2010 12:00 20,6 C 66 % 1020,3 hPa 0,0 mm 2,3 km/h (1 Bft) S-SO 149 10 min 4 UV-I 609 W/m 8,0 km/h (2 Bft)
22.09.2010 12:10 20,8 C 63 % 1020,3 hPa 0,0 mm 3,4 km/h (1 Bft) SO 130 10 min 4 UV-I 620 W/m 11,3 km/h (2 Bft)
22.09.2010 12:20 21,3 C 62 % 1020,3 hPa 0,0 mm 2,5 km/h (1 Bft) S-SW 192 10 min 4 UV-I 632 W/m 12,9 km/h (3 Bft)
22.09.2010 12:30 21,3 C 62 % 1020,0 hPa 0,0 mm 4,3 km/h (1 Bft) O-SO 111 10 min 4 UV-I 642 W/m 16,1 km/h (3 Bft)
22.09.2010 12:40 21,6 C 63 % 1019,9 hPa 0,0 mm 3,8 km/h (1 Bft) O-SO 104 10 min 4 UV-I 651 W/m 12,9 km/h (3 Bft)
22.09.2010 12:50 21,9 C 61 % 1019,9 hPa 0,0 mm 2,9 km/h (1 Bft) O-SO 111 10 min 4 UV-I 657 W/m 9,7 km/h (2 Bft)
22.09.2010 13:00 21,9 C 60 % 1019,8 hPa 0,0 mm 3,9 km/h (1 Bft) O-SO 111 10 min 4 UV-I 660 W/m 14,5 km/h (3 Bft)
22.09.2010 13:10 22,3 C 60 % 1019,7 hPa 0,0 mm 4,2 km/h (1 Bft) O-SO 121 10 min 4 UV-I 669 W/m 14,5 km/h (3 Bft)
22.09.2010 13:20 22,6 C 60 % 1019,7 hPa 0,0 mm 3,6 km/h (1 Bft) S 173 10 min 4 UV-I 668 W/m 16,1 km/h (3 Bft)
22.09.2010 13:30 22,7 C 59 % 1019,4 hPa 0,0 mm 3,6 km/h (1 Bft) SO 142 10 min 4 UV-I 667 W/m 17,7 km/h (3 Bft)
22.09.2010 13:40 23,2 C 59 % 1019,2 hPa 0,0 mm 2,8 km/h (1 Bft) O 86 10 min 4 UV-I 665 W/m 11,3 km/h (2 Bft)
22.09.2010 13:50 23,2 C 59 % 1019,2 hPa 0,0 mm 4,0 km/h (1 Bft) O-SO 102 10 min 4 UV-I 628 W/m 9,7 km/h (2 Bft)
22.09.2010 14:00 23,3 C 57 % 1019,2 hPa 0,0 mm 3,2 km/h (1 Bft) O-SO 112 10 min 4 UV-I 654 W/m 11,3 km/h (2 Bft)
22.09.2010 14:10 23,6 C 56 % 1018,9 hPa 0,0 mm 3,2 km/h (1 Bft) O-SO 112 10 min 4 UV-I 643 W/m 16,1 km/h (3 Bft)
22.09.2010 14:20 23,7 C 56 % 1018,7 hPa 0,0 mm 4,8 km/h (1 Bft) O 90 10 min 4 UV-I 642 W/m 14,5 km/h (3 Bft)
22.09.2010 14:30 23,8 C 53 % 1018,4 hPa 0,0 mm 4,8 km/h (1 Bft) O-SO 112 10 min 4 UV-I 640 W/m 9,7 km/h (2 Bft)
22.09.2010 14:40 24,1 C 54 % 1018,4 hPa 0,0 mm 4,8 km/h (1 Bft) O-SO 112 10 min 4 UV-I 626 W/m 12,9 km/h (3 Bft)
22.09.2010 14:50 24,2 C 54 % 1018,3 hPa 0,0 mm 3,2 km/h (1 Bft) SO 135 10 min 4 UV-I 613 W/m 9,7 km/h (2 Bft)
22.09.2010 15:00 24,2 C 55 % 1018,2 hPa 0,0 mm 3,2 km/h (1 Bft) SO 135 10 min 3 UV-I 601 W/m 11,3 km/h (2 Bft)
22.09.2010 15:10 24,3 C 52 % 1018,2 hPa 0,0 mm 3,2 km/h (1 Bft) SO 135 10 min 3 UV-I 589 W/m 14,5 km/h (3 Bft)
22.09.2010 15:20 24,6 C 53 % 1018,0 hPa 0,0 mm 3,2 km/h (1 Bft) O-SO 112 10 min 3 UV-I 577 W/m 9,7 km/h (2 Bft)
22.09.2010 15:30 24,4 C 52 % 1018,0 hPa 0,0 mm 1,6 km/h (1 Bft) S 180 10 min 3 UV-I 559 W/m 9,7 km/h (2 Bft)
22.09.2010 15:40 24,7 C 52 % 1017,7 hPa 0,0 mm 3,2 km/h (1 Bft) O-SO 112 10 min 3 UV-I 541 W/m 16,1 km/h (3 Bft)
22.09.2010 15:50 24,7 C 52 % 1017,7 hPa 0,0 mm 3,2 km/h (1 Bft) SO 135 10 min 3 UV-I 526 W/m 9,7 km/h (2 Bft)
22.09.2010 16:00 24,8 C 51 % 1017,6 hPa 0,0 mm 4,8 km/h (1 Bft) SO 135 10 min 2 UV-I 501 W/m 16,1 km/h (3 Bft)
22.09.2010 16:10 24,7 C 51 % 1017,8 hPa 0,0 mm 1,6 km/h (1 Bft) S-SO 157 10 min 2 UV-I 480 W/m 6,4 km/h (2 Bft)
22.09.2010 16:20 24,8 C 52 % 1017,7 hPa 0,0 mm 3,2 km/h (1 Bft) S-SO 157 10 min 2 UV-I 462 W/m 11,3 km/h (2 Bft)
22.09.2010 16:30 24,9 C 53 % 1017,6 hPa 0,0 mm 1,6 km/h (1 Bft) SO 135 10 min 2 UV-I 445 W/m 9,7 km/h (2 Bft)
22.09.2010 16:40 25,1 C 51 % 1017,5 hPa 0,0 mm 1,6 km/h (1 Bft) SO 135 10 min 2 UV-I 429 W/m 8,0 km/h (2 Bft)
22.09.2010 16:50 24,8 C 52 % 1017,5 hPa 0,0 mm 3,2 km/h (1 Bft) SO 135 10 min 2 UV-I 374 W/m 12,9 km/h (3 Bft)
22.09.2010 17:00 24,8 C 54 % 1017,4 hPa 0,0 mm 1,6 km/h (1 Bft) SO 135 10 min 1 UV-I 373 W/m 6,4 km/h (2 Bft)
22.09.2010 17:10 24,8 C 50 % 1017,3 hPa 0,0 mm 1,6 km/h (1 Bft) SO 135 10 min 1 UV-I 369 W/m 8,0 km/h (2 Bft)
22.09.2010 17:20 24,6 C 53 % 1017,2 hPa 0,0 mm 1,6 km/h (1 Bft) S-SW 202 10 min 1 UV-I 318 W/m 9,7 km/h (2 Bft)
22.09.2010 17:30 24,3 C 54 % 1017,3 hPa 0,0 mm 0,4 km/h (0 Bft) S-SO 165 10 min 1 UV-I 232 W/m 3,2 km/h (1 Bft)
22.09.2010 17:40 24,3 C 53 % 1017,1 hPa 0,0 mm 1,5 km/h (1 Bft) W 273 10 min 1 UV-I 243 W/m 8,0 km/h (2 Bft)
22.09.2010 17:50 23,9 C 54 % 1017,1 hPa 0,0 mm 2,1 km/h (1 Bft) S-SO 153 10 min 1 UV-I 208 W/m 9,7 km/h (2 Bft)
22.09.2010 18:00 23,4 C 54 % 1017,1 hPa 0,0 mm 1,6 km/h (1 Bft) O-SO 123 10 min 1 UV-I 133 W/m 6,4 km/h (2 Bft)
22.09.2010 18:10 22,9 C 56 % 1017,2 hPa 0,0 mm 1,3 km/h (1 Bft) S-SO 155 0 min 0 UV-I 81 W/m 6,4 km/h (2 Bft)
22.09.2010 18:20 22,2 C 57 % 1017,1 hPa 0,0 mm 1,1 km/h (1 Bft) S-SO 164 0 min 0 UV-I 68 W/m 6,4 km/h (2 Bft)
22.09.2010 18:30 21,9 C 59 % 1017,0 hPa 0,0 mm 0,7 km/h (0 Bft) SO 136 10 min 0 UV-I 88 W/m 4,8 km/h (1 Bft)
22.09.2010 18:40 21,7 C 60 % 1016,9 hPa 0,0 mm 0,7 km/h (0 Bft) S-SW 204 10 min 0 UV-I 76 W/m 4,8 km/h (1 Bft)
22.09.2010 18:50 21,3 C 62 % 1016,9 hPa 0,0 mm 0,5 km/h (0 Bft) S 189 10 min 0 UV-I 47 W/m 6,4 km/h (2 Bft)
22.09.2010 19:00 20,8 C 63 % 1016,8 hPa 0,0 mm 0,1 km/h (0 Bft) S 188 0 min 0 UV-I 26 W/m 1,6 km/h (1 Bft)
22.09.2010 19:10 20,3 C 64 % 1016,8 hPa 0,0 mm 0,5 km/h (0 Bft) S-SO 163 10 min 0 UV-I 18 W/m 4,8 km/h (1 Bft)
22.09.2010 19:20 20,0 C 65 % 1016,7 hPa 0,0 mm 0,9 km/h (0 Bft) SO 144 0 min 0 UV-I 9 W/m 6,4 km/h (2 Bft)
22.09.2010 19:30 19,8 C 66 % 1016,7 hPa 0,0 mm 1,6 km/h (1 Bft) SO 135 0 min 0 UV-I 0 W/m 6,4 km/h (2 Bft)
22.09.2010 19:40 19,4 C 67 % 1016,7 hPa 0,0 mm 0,0 km/h (0 Bft) S-SO 157 0 min 0 UV-I 0 W/m 6,4 km/h (2 Bft)
22.09.2010 19:50 19,1 C 68 % 1016,7 hPa 0,0 mm 0,0 km/h (0 Bft) SO 135 0 min 0 UV-I 0 W/m 4,8 km/h (1 Bft)
22.09.2010 20:00 18,9 C 68 % 1016,7 hPa 0,0 mm 0,0 km/h (0 Bft) S-SO 157 0 min 0 UV-I 0 W/m 4,8 km/h (1 Bft)
22.09.2010 20:10 18,6 C 69 % 1016,6 hPa 0,0 mm 0,0 km/h (0 Bft) SO 135 0 min 0 UV-I 0 W/m 4,8 km/h (1 Bft)
22.09.2010 20:20 18,4 C 70 % 1016,7 hPa 0,0 mm 0,0 km/h (0 Bft) S-SO 157 0 min 0 UV-I 0 W/m 4,8 km/h (1 Bft)
22.09.2010 20:30 18,0 C 71 % 1016,7 hPa 0,0 mm 0,0 km/h (0 Bft) S-SO 157 0 min 0 UV-I 0 W/m 4,8 km/h (1 Bft)
22.09.2010 20:40 17,7 C 72 % 1016,9 hPa 0,0 mm 0,0 km/h (0 Bft) S-SO 157 0 min 0 UV-I 0 W/m 3,2 km/h (1 Bft)
22.09.2010 20:50 17,6 C 73 % 1017,0 hPa 0,0 mm 0,0 km/h (0 Bft) S 180 0 min 0 UV-I 0 W/m 1,6 km/h (1 Bft)
22.09.2010 21:00 17,2 C 74 % 1017,1 hPa 0,0 mm 0,0 km/h (0 Bft) S-SO 157 0 min 0 UV-I 0 W/m 4,8 km/h (1 Bft)
22.09.2010 21:10 17,1 C 74 % 1017,0 hPa 0,0 mm 0,0 km/h (0 Bft) S-SO 157 0 min 0 UV-I 0 W/m 4,8 km/h (1 Bft)
22.09.2010 21:20 16,8 C 75 % 1017,0 hPa 0,0 mm 0,0 km/h (0 Bft) S-SO 157 0 min 0 UV-I 0 W/m 3,2 km/h (1 Bft)
22.09.2010 21:30 16,6 C 76 % 1017,0 hPa 0,0 mm 0,0 km/h (0 Bft) S-SO 157 0 min 0 UV-I 0 W/m 1,6 km/h (1 Bft)
22.09.2010 21:40 16,4 C 76 % 1017,0 hPa 0,0 mm 0,0 km/h (0 Bft) S-SO 157 0 min 0 UV-I 0 W/m 3,2 km/h (1 Bft)
22.09.2010 21:50 16,2 C 77 % 1016,9 hPa 0,0 mm 0,0 km/h (0 Bft) S-SO 157 0 min 0 UV-I 0 W/m 1,6 km/h (1 Bft)
22.09.2010 22:00 16,1 C 77 % 1016,9 hPa 0,0 mm 0,0 km/h (0 Bft) S-SO 157 0 min 0 UV-I 0 W/m 1,6 km/h (1 Bft)
22.09.2010 22:10 15,9 C 78 % 1016,9 hPa 0,0 mm 0,0 km/h (0 Bft) S-SO 157 0 min 0 UV-I 0 W/m 1,6 km/h (1 Bft)
22.09.2010 22:20 15,7 C 78 % 1016,8 hPa 0,0 mm 0,0 km/h (0 Bft) S-SO 157 0 min 0 UV-I 0 W/m 1,6 km/h (1 Bft)
22.09.2010 22:30 15,4 C 79 % 1016,8 hPa 0,0 mm 0,0 km/h (0 Bft) S-SO 157 0 min 0 UV-I 0 W/m 1,6 km/h (1 Bft)
22.09.2010 22:40 15,2 C 79 % 1016,7 hPa 0,0 mm 0,0 km/h (0 Bft) S-SO 157 0 min 0 UV-I 0 W/m 1,6 km/h (1 Bft)
22.09.2010 22:50 15,2 C 79 % 1016,8 hPa 0,0 mm 0,0 km/h (0 Bft) S-SO 157 0 min 0 UV-I 0 W/m 1,6 km/h (1 Bft)
22.09.2010 23:00 15,1 C 80 % 1016,7 hPa 0,0 mm 0,0 km/h (0 Bft) N 0 0 min 0 UV-I 0 W/m 0,0 km/h (0 Bft)
22.09.2010 23:10 14,9 C 80 % 1016,6 hPa 0,0 mm 0,0 km/h (0 Bft) S-SO 157 0 min 0 UV-I 0 W/m 1,6 km/h (1 Bft)
22.09.2010 23:20 14,7 C 81 % 1016,6 hPa 0,0 mm 0,0 km/h (0 Bft) N 0 0 min 0 UV-I 0 W/m 0,0 km/h (0 Bft)
22.09.2010 23:30 14,3 C 82 % 1016,6 hPa 0,0 mm 0,0 km/h (0 Bft) N 0 0 min 0 UV-I 0 W/m 0,0 km/h (0 Bft)
22.09.2010 23:40 13,8 C 83 % 1016,6 hPa 0,0 mm 0,0 km/h (0 Bft) N 0 0 min 0 UV-I 0 W/m 0,0 km/h (0 Bft)
22.09.2010 23:50 13,5 C 84 % 1016,5 hPa 0,0 mm 0,0 km/h (0 Bft) N 0 0 min 0 UV-I 0 W/m 0,0 km/h (0 Bft)
_ Min-Zeit 01:50 17:10 23:50 - 00:00 - - - - - 00:00
Minimum _ 9,7 C 50 % 1016,5 hPa - 0,0 km/h (0 Bft) - - - - - 0,0 km/h (0 Bft)
_ Max-Zeit 16:40 08:10 00:00 00:00 14:20 - - 08:30 14:00 13:10 13:30
Maximum _ 25,3 C 94 % 1022,0 hPa 0,0 mm 4,8 km/h
O (1 Bft)
- - 10 min 4 UV-I 669 W/m 17,7 km/h
S-SW (3 Bft)
Durchschnitt _ 16,3 C 76 % 1019,5 hPa #0,0 mm 1,2 km/h (1 Bft) O-SO - #10:20 h 3 UV-I 385 W/m 5,2 km/h (1 Bft)